Tracking 31027 objects as of 19-Jul-2025
HD Live streaming from Space Station
objects crossing your sky now

STARLINK-5290

Track STARLINK-5290 now!
10-day predictions
STARLINK-5290 is classified as:


NORAD ID: 54157
Int'l Code: 2022-141A
Perigee: 546.1 km
Apogee: 547.7 km
Inclination: 53.2 °
Period: 95.4 minutes
Semi major axis: 6917 km
RCS: Unknown
Launch date: October 28, 2022
Source: United States (US)
Launch site: AIR FORCE WESTERN TEST RANGE (AFWTR)
Your satellite tracking list
No more satellites can be added for tracking (max 5)
FOX-1B (RADFXSAT AO-91)
FOX-1D (AO-92)
FOX-1A (AO-85)
FUNCUBE 1 (AO-73)
SPACE STATION
Track 5 satellite(s)




NASA's NSSDC Master Catalog

Two Line Element Set (TLE):
1 54157U 22141A   25199.70096430 -.00000060  00000-0  14312-4 0  9999
2 54157  53.2184 344.4852 0001164  85.3296 274.7829 15.08836674150397
Source of the keplerian elements: AFSPC